METEOR 2-16

导读

METEOR 2-16是苏联(CIS)于1987年8月18日发射的第二代“流星”气象卫星,运行于低地球轨道,属于苏联(俄罗斯)METEOR气象卫星星座。卫星搭载可见光红外相机、多通道扫描辐射计及空间辐射探测器,可对云层分布、海面温度、大气参数等开展多光谱观测,为全球气象预报、气候研究及灾害预警提供关键数据支撑,是冷战时期苏联气象观测网络的重要组成部分。

Basic Information
目录编号:
18312
目录名称:
METEOR 2-16
国际标识:
1987-068A
轨道中心:
EARTH
卫星名称:
METEOR 2-16
卫星全名:
--
卫星状态:
在轨 (已飞行14270 天)
发射日期:
1987-08-18 UTC
国别 :
俄罗斯(独联体) (CIS)
星等 :
--
This satellite is enrolled in the Space Conjunction Data Service (SCDS) and the current flight risk assessment level is: No High Risk
Orbit Information
数据来源 国际轨道数据 AOE轨道数据
星历时间 2026-09-11T22:44:44+0800
12小时前
查看轨道信息
2026-09-10T08:00:00+0800
2天前
查看轨道信息
半长轴 7324.508km 7324.508km
偏心率 0.00131 0.0012588
轨道倾角 82.555° 82.555°
近地点辐角 151.776° 155.756°
升交点赤经 225.706° 226.987°
平近点角 208.411° 79.847°
近地点 936.775km 937.15km
远地点 955.967km 955.592km
周期 103.975分钟 103.975分钟
每日圈数 13.849534 13.849534
Detailed Information
使用方式:
暂无
2D Orbit Map
3D Orbit Map
Orbit Altitude Analysis Chart
Orbit Inclination Analysis Chart
Orbit Comprehensive Analysis Chart
View Comprehensive Chart
Miss Distance Evolution Trend with All Objects
Collision Probability Evolution Trend with All Objects